sat.trackr.live / text

‹ back to catalog

STARLINK-33996

NORAD 63944 · 2025-098U

PAYLOAD ACTIVE UNKNOWN

§ Identity

Operator
Country
US
Launch date
2025-05-13
Launch site
AFWTR
Launch vehicle
Mass (kg)
RCS (m²)

Purposes: comms

External: N2YO · Heavens-Above · Gunter

§ Orbital elements

Epoch: 2026-05-25T03:35:50.528832Z

Period
96.11 min
Inclination
70.0011°
Eccentricity
0.0002978
Mean motion
14.98337330 rev/d
Perigee alt
570.0 km
Apogee alt
574.1 km
Semi-major
6,950.2 km
B*
1.1983e-4
RAAN
81.7469°
Arg perigee
263.6398°
Mean anomaly
96.4422°
Rev number
5,800

§ Raw data

STARLINK-339961 63944U 25098U   26145.14989038  .00001337  00000+0  11983-3 0  99982 63944  70.0011  81.7469 0002978 263.6398  96.4422 14.98337330 58006

JSON: /api/v1/satellites/63944 · /tle

For live sub-satellite position, see the globe view (requires WebGL).

§ Visibility from observer

Set your observer location to see the next 7 days of passes ≥ 10°. The values pass through the URL so the page stays shareable.

No JS? Fill the form by hand. The geolocation button needs JavaScript.